カタログに戻る

STARLINK-36744

運用中通信VLEO
NORAD 67987·PAYLOAD·🇺🇸 United States

打ち上げ Feb 27, 2026 から Vandenberg Space Force Base

Loading…

次のパス (今後24時間)

TLE

最新Source: CelesTrak SupGP

元期: Sep 14, 2026, 22:49 UTC

1 67987C 26039B   26257.95118056  .00057142  00000+0  20696-2 0  2574
2 67987  43.0004  60.4235 0001439 274.2434 121.2749 15.27550815    19

AllMySatでSTARLINK-36744をリアルタイム追跡

Download on the App Store